Regional Weather Roundup
Issued by NWS Upton, NY

Home | Current Version | Previous Version | Text Only | Print | Product List | Glossary On
Versions: 1 2 3 4 5 6 7 8 9 10 11 12 13 14 15 16 17 18 19 20 21 22 23 24 25 26 27 28 29 30 31 32 33 34 35 36 37 38 39 40 41 42 43 44 45 46 47 48 49 50
000
ASUS41 KOKX 021304
RWROKX

REGIONAL WEATHER ROUNDUP
NATIONAL WEATHER SERVICE NEW YORK NY
900 AM EDT WED SEP 02 2015

NOTE: "FAIR" INDICATES FEW OR NO CLOUDS BELOW 12,000 FEET WITH NO
SIGNIFICANT WEATHER AND/OR OBSTRUCTIONS TO VISIBILITY.

NYZ071-072-176-178-NJZ106-104-021400-
NEW YORK CITY METRO AREA


CITY           SKY/WX    TMP DP  RH WIND       PRES   REMARKS
CENTRAL PARK   SUNNY     79  65  62 VRB3      30.06S
LAGUARDIA APRT PTSUNNY   80  65  59 S5        30.02F
KENNEDY INTL   PTSUNNY   77  71  82 SW5       30.05S
NEWARK/LIBERTY PTSUNNY   76  71  85 VRB3      30.03S HAZE
BRNX BOT. GARD   N/A     79  63  57 SW1       30.04R
TETERBORO      SUNNY     77  66  68 S3        30.02F HAZE
$$

NYZ177-179-078>081-021400-
LONG ISLAND NEW YORK

CITY           SKY/WX    TMP DP  RH WIND       PRES   REMARKS
FARMINGDALE    SUNNY     77  70  79 SW5       30.04S
ISLIP          MOSUNNY   76  71  85 SW6       30.02F HAZE
SHIRLEY        SUNNY     75  71  87 SW5       30.04F
WESTHAMPTON    PTSUNNY   74  73  97 SW7       30.05F FOG
MONTAUK POINT    N/A     74  70  87 CALM      30.04F
$$

NYZ052-065-067-021400-
HUDSON VALLEY

CITY           SKY/WX    TMP DP  RH WIND       PRES   REMARKS
WHITE PLAINS   MOSUNNY   76  67  73 CALM      30.04S
NEWBURGH       MOSUNNY   72  68  88 CALM      30.06S
MONTGOMERY     SUNNY     71  66  84 S3        30.04F
POUGHKEEPSIE   SUNNY     71  63  75 CALM      30.03F
ALBANY         SUNNY     70  64  81 CALM      30.03S
$$

NJZ001-105-106-008-010-013-015-019>022-104-021400-
NEW JERSEY

CITY           SKY/WX    TMP DP  RH WIND       PRES   REMARKS
NEWARK/LIBERTY PTSUNNY   76  71  85 VRB3      30.03S HAZE
TETERBORO      SUNNY     77  66  68 S3        30.02F HAZE
CALDWELL       SUNNY     72  64  76 W3        30.05S
MORRISTOWN     CLOUDY    75  72  88 CALM      30.05S HAZE
SOMERVILLE     MOSUNNY   72  65  78 CALM      30.03S HAZE
SUSSEX         SUNNY     68  64  87 CALM      30.05F
ANDOVER          N/A     71  67  87 CALM      30.06F
TRENTON        FOG       72  70  93 CALM      30.04S VSB 3/4
MILLVILLE      PTSUNNY   73  72  96 CALM      30.04S FOG
ATLANTIC CITY  FOG       75  74  96 CALM      30.04S VSB 1/4
WRIGHTSTOWN    FOG       72  72 100 VRB1      30.03R VSB 1/2
TOMS RIVER     CLOUDY    75  72  88 CALM      30.05S
BELMAR         PTSUNNY   73  66  78 S5        30.05S
$$

PAZ047>061-062-071-021400-
EASTERN PENNSYLVANIA

CITY           SKY/WX    TMP DP  RH WIND       PRES   REMARKS
PHILADELPHIA   PTSUNNY   77  71  82 SE5       30.04S HAZE
ALLENTOWN      MOSUNNY   72  66  81 CALM      30.06S
SCRANTON       SUNNY     70  62  76 CALM      30.09R
$$

CTZ002-004>006-009-010-012-RIZ004-006-007-MAZ004-011-015-021400-
SOUTHERN NEW ENGLAND
 IN CT

CITY           SKY/WX    TMP DP  RH WIND       PRES   REMARKS
BRADLEY INTL   SUNNY     71  64  78 CALM      30.01F
HARTFORD       SUNNY     74  66  76 S3        30.01F
DANBURY        SUNNY     73  64  73 CALM      30.05F
WTRBRY/OXFORD  NOT AVBL
BRIDGEPORT     SUNNY     76  70  82 SW6       30.03S HAZE
MERIDEN        SUNNY     74  66  76 SE3       30.03S
NEW HAVEN      SUNNY     73  69  87 SW5       30.03S
CHESTER        NOT AVBL
GROTON         SUNNY     74  72  93 SW8       30.02F
WILLIMANTIC    CLOUDY    65  63  93 CALM      30.03F FOG

 IN RI

CITY           SKY/WX    TMP DP  RH WIND       PRES   REMARKS
PROVIDENCE     SUNNY     74  66  76 SW8       30.02S
BLOCK ISLAND   SUNNY     73  72  94 SW10      30.04S
WESTERLY       CLOUDY    73  69  87 SW6       30.04S FOG

 IN MA

CITY           SKY/WX    TMP DP  RH WIND       PRES   REMARKS
BOSTON         SUNNY     76  62  62 SW8       29.99F
WORCESTER      SUNNY     70  62  76 W12       30.03F
WESTFIELD      SUNNY     68  62  81 S5        30.02F
PROVINCETOWN     N/A     72  63  73 SW10      30.01S
NANTUCKET      SUNNY     72  67  84 S8        30.03S
$$

ANZ330-335-338-340-345-350-353-355-021400-
COASTAL MARINE OBSERVATIONS


STATION/POSITION TIME  SKY/WX   TEMP    WIND        PRES    VSBY  WAVE
                                AIR SEA DIR/SP/G                  HT/PER
                 (UTC)          (F)     (DEG/KT/KT) (MB)    (MI)  (FT/S)
NY HARB ENTRANCE 1150            74 76  240/  4/  4 1016.9          1/ 8
4S FIRE IS       NOT AVBL
20S FIRE ISLAND  1150            74 74  170/  4/  4 1017.1          1/ 7
GREAT SOUTH BAY  1215            74 78  330/  2/  4   N/A
23SW MTP         1250            72 72  240/  2/  2 1016.9          1/ 8
HUDSON CANYON    NOT AVBL
KINGS POINT      1200            74 74  160/  3/  4 1016.3
EXECUTION ROCKS  1200            80     200/  2/  2   N/A
CENTRAL LI SOUND NOT AVBL
EASTERN LI SOUND 1200            77 71  260/  4/  4   N/A
ROBBINS REEF     1200            72     180/  7/  8 1016.0
$$


>>>>>>>>>>>>>>>>>>>>>>>>>>>> KEY <<<<<<<<<<<<<<<<<<<<<<<<<<<
>                                                          <
>     SKY/WX - SKY CONDITION/PRESENT WEATHER               <
>     TMP    - TEMPERATURE IN FAHRENHEIT                   <
>     DP     - DEWPOINT IN FAHRENHEIT                      <
>     RH     - RELATIVE HUMIDITY IN PERCENT                <
>     WIND   - DIRECTION AND SPEED IN MPH                  <
>     PRES   - MEAN SEA LEVEL PRESSURE IN INCHES OF HG     <
>     WCI    - WIND CHILL INDEX                            <
>     VSB    - VISIBILITY IN MILES                         <
>     HX     - HEAT INDEX                                  <
>     TC     - TEMPERATURE IN CELSIUS                      <
>     VRB    - VARIABLE WIND DIRECTION                     <
>                                                          <
>>>>>>>>>>>>>>>>>>>>>>>>>>>> KEY <<<<<<<<<<<<<<<<<<<<<<<<<<<





USA.gov is the U.S. government's official web portal to all federal, state and local government web resources and services.